CES5506 ZSNJ-ZSPD

Flight info

Callsign CES5506
Flight time 0h 38m
Altitude 26600
Route ESBAG R343 EKIMU
Aircraft B463/M-SDE1E2E3FGHIJ2J3J4J5M1RWXYZ/LB1D1

Departure

Time 2026-05-07 07:48
Airport Nanjing Lukou International Airport (ZSNJ)

Arrival

Time 2026-05-07 08:26
Airport Shanghai Pudong International Airport (ZSPD)
Time Latitude Longitude Altitude Speed Heading
2026-05-07 07:13 31.73062 118.86742 58 ft 0 kts 148°
2026-05-07 07:35 31.73063 118.86741 58 ft 2 kts 148°
2026-05-07 07:35 31.73083 118.86729 54 ft 3 kts 162°
2026-05-07 07:35 31.73106 118.86727 56 ft 3 kts 203°
2026-05-07 07:35 31.73116 118.86738 57 ft 1 kts 238°
2026-05-07 07:40 31.73115 118.86736 58 ft 2 kts 238°
2026-05-07 07:41 31.73092 118.86694 50 ft 10 kts 238°
2026-05-07 07:41 31.73039 118.86594 57 ft 18 kts 238°
2026-05-07 07:41 31.72969 118.86463 55 ft 11 kts 238°
2026-05-07 07:41 31.72935 118.86400 58 ft 6 kts 238°
2026-05-07 07:42 31.72931 118.86393 58 ft 0 kts 238°
2026-05-07 07:42 31.72933 118.86381 58 ft 4 kts 296°
2026-05-07 07:42 31.72965 118.86352 53 ft 7 kts 333°
2026-05-07 07:42 31.72985 118.86323 55 ft 5 kts 240°
2026-05-07 07:43 31.72961 118.86265 55 ft 12 kts 264°
2026-05-07 07:43 31.73032 118.86185 52 ft 19 kts 328°
2026-05-07 07:43 31.73164 118.86087 58 ft 26 kts 328°
2026-05-07 07:43 31.73338 118.85958 57 ft 33 kts 328°
2026-05-07 07:44 31.73545 118.85807 58 ft 37 kts 328°
2026-05-07 07:44 31.73697 118.85679 57 ft 24 kts 296°
2026-05-07 07:44 31.73628 118.85491 52 ft 28 kts 238°
2026-05-07 07:44 31.73518 118.85286 55 ft 28 kts 238°
2026-05-07 07:45 31.73422 118.85106 56 ft 25 kts 238°
2026-05-07 07:45 31.73333 118.84939 54 ft 23 kts 238°
2026-05-07 07:45 31.73289 118.84856 55 ft 2 kts 238°
2026-05-07 07:45 31.73278 118.84837 56 ft 4 kts 238°
2026-05-07 07:46 31.73260 118.84802 56 ft 6 kts 238°
2026-05-07 07:46 31.73231 118.84749 55 ft 10 kts 237°
2026-05-07 07:46 31.73248 118.84685 53 ft 4 kts 326°
2026-05-07 07:46 31.73273 118.84666 58 ft 8 kts 327°
2026-05-07 07:47 31.73344 118.84617 59 ft 15 kts 348°
2026-05-07 07:47 31.73414 118.84692 52 ft 16 kts 58°
2026-05-07 07:47 31.73551 118.84947 56 ft 63 kts 58°
2026-05-07 07:47 31.73863 118.85530 56 ft 104 kts 58°
2026-05-07 07:48 31.74308 118.86360 60 ft 137 kts 57°
2026-05-07 07:48 31.74834 118.87342 379 ft 141 kts 56°
2026-05-07 07:48 31.75347 118.88286 748 ft 139 kts 56°
2026-05-07 07:48 31.75847 118.89272 1124 ft 138 kts 54°
2026-05-07 07:49 31.76367 118.90265 1362 ft 151 kts 52°
2026-05-07 07:49 31.76991 118.91380 1438 ft 174 kts 52°
2026-05-07 07:49 31.77687 118.92607 1708 ft 182 kts 53°
2026-05-07 07:49 31.78376 118.93855 2142 ft 183 kts 53°
2026-05-07 07:50 31.79075 118.95136 2584 ft 193 kts 53°
2026-05-07 07:50 31.79804 118.96504 3110 ft 206 kts 61°
2026-05-07 07:50 31.79978 118.98241 3518 ft 230 kts 99°
2026-05-07 07:50 31.79552 119.00127 4011 ft 245 kts 102°
2026-05-07 07:51 31.79080 119.02108 4564 ft 258 kts 104°
2026-05-07 07:51 31.78580 119.04173 5136 ft 265 kts 104°
2026-05-07 07:51 31.78076 119.06269 5863 ft 268 kts 104°
2026-05-07 07:51 31.77592 119.08360 6626 ft 269 kts 104°
2026-05-07 07:52 31.77116 119.10514 7281 ft 275 kts 103°
2026-05-07 07:52 31.76641 119.12740 7875 ft 283 kts 102°
2026-05-07 07:52 31.76184 119.14984 8618 ft 285 kts 102°
2026-05-07 07:52 31.75732 119.17280 9407 ft 290 kts 102°
2026-05-07 07:53 31.75277 119.19603 10134 ft 295 kts 102°
2026-05-07 07:53 31.74757 119.21944 10880 ft 298 kts 105°
2026-05-07 07:53 31.74140 119.24297 11568 ft 304 kts 108°
2026-05-07 07:53 31.73468 119.26720 11948 ft 320 kts 108°
2026-05-07 07:54 31.72752 119.29272 12242 ft 336 kts 108°
2026-05-07 07:54 31.71999 119.31941 12493 ft 350 kts 108°
2026-05-07 07:54 31.71222 119.34683 12805 ft 357 kts 109°
2026-05-07 07:54 31.70444 119.37436 13232 ft 360 kts 109°
2026-05-07 07:55 31.69658 119.40241 13686 ft 362 kts 109°
2026-05-07 07:55 31.68859 119.43102 13804 ft 374 kts 109°
2026-05-07 07:55 31.68046 119.46020 14088 ft 378 kts 109°
2026-05-07 07:55 31.67227 119.48963 14403 ft 380 kts 109°
2026-05-07 07:56 31.66408 119.51925 14605 ft 385 kts 109°
2026-05-07 07:56 31.65569 119.54931 14701 ft 383 kts 109°
2026-05-07 07:56 31.64724 119.57891 14728 ft 384 kts 109°
2026-05-07 07:56 31.63890 119.60881 14729 ft 385 kts 109°
2026-05-07 07:57 31.63062 119.63861 14735 ft 384 kts 109°
2026-05-07 07:57 31.62344 119.66878 14737 ft 385 kts 102°
2026-05-07 07:57 31.61935 119.69982 14737 ft 386 kts 96°
2026-05-07 07:57 31.61767 119.72067 14732 ft 386 kts 94°
2026-05-07 07:58 31.61551 119.76275 14732 ft 386 kts 92°
2026-05-07 07:58 31.61430 119.79379 14731 ft 386 kts 92°
2026-05-07 07:58 31.61324 119.82521 14732 ft 386 kts 92°
2026-05-07 07:58 31.61251 119.84658 14728 ft 389 kts 92°
2026-05-07 07:59 31.61077 119.88874 14728 ft 390 kts 92°
2026-05-07 07:59 31.60943 119.92040 14728 ft 389 kts 92°
2026-05-07 07:59 31.60851 119.94146 14729 ft 390 kts 92°
2026-05-07 07:59 31.60708 119.97324 14723 ft 390 kts 93°
2026-05-07 08:00 31.60540 120.00492 14723 ft 389 kts 93°
2026-05-07 08:00 31.60381 120.03660 14725 ft 390 kts 92°
2026-05-07 08:00 31.60234 120.06848 14722 ft 391 kts 92°
2026-05-07 08:00 31.60089 120.10036 14724 ft 391 kts 92°
2026-05-07 08:01 31.59931 120.13222 14720 ft 393 kts 94°
2026-05-07 08:01 31.59774 120.16431 14719 ft 396 kts 94°
2026-05-07 08:01 31.59615 120.19657 14712 ft 394 kts 94°
2026-05-07 08:01 31.59460 120.22868 14713 ft 394 kts 94°
2026-05-07 08:02 31.59304 120.26088 14726 ft 396 kts 94°
2026-05-07 08:02 31.59117 120.29313 14717 ft 395 kts 96°
2026-05-07 08:02 31.58684 120.32487 14715 ft 394 kts 104°
2026-05-07 08:02 31.57982 120.35592 14715 ft 394 kts 108°
2026-05-07 08:03 31.57138 120.38641 14712 ft 394 kts 110°
2026-05-07 08:03 31.56228 120.41664 14705 ft 393 kts 112°
2026-05-07 08:03 31.55311 120.44680 14707 ft 392 kts 112°
2026-05-07 08:03 31.54422 120.47655 14707 ft 392 kts 111°
2026-05-07 08:04 31.53548 120.50687 14707 ft 393 kts 111°
2026-05-07 08:04 31.52658 120.53717 14707 ft 393 kts 111°
2026-05-07 08:04 31.51769 120.56743 14706 ft 392 kts 111°
2026-05-07 08:04 31.50879 120.59766 14707 ft 393 kts 111°
2026-05-07 08:05 31.49975 120.62793 14703 ft 393 kts 112°
2026-05-07 08:05 31.49055 120.65793 14707 ft 393 kts 112°
2026-05-07 08:05 31.48145 120.68817 14703 ft 393 kts 111°
2026-05-07 08:05 31.47253 120.71821 14700 ft 392 kts 111°
2026-05-07 08:06 31.46340 120.74831 14696 ft 392 kts 112°
2026-05-07 08:06 31.45421 120.77843 14692 ft 393 kts 111°
2026-05-07 08:06 31.44506 120.80862 14693 ft 393 kts 112°
2026-05-07 08:06 31.43574 120.83876 14691 ft 393 kts 112°
2026-05-07 08:07 31.42656 120.86837 14689 ft 393 kts 112°
2026-05-07 08:07 31.41722 120.89842 14690 ft 393 kts 112°
2026-05-07 08:07 31.40733 120.92824 14691 ft 391 kts 117°
2026-05-07 08:07 31.39455 120.95620 14697 ft 388 kts 126°
2026-05-07 08:08 31.37930 120.98196 14698 ft 383 kts 130°
2026-05-07 08:08 31.36283 121.00646 14714 ft 383 kts 133°
2026-05-07 08:08 31.34581 121.03050 14723 ft 383 kts 134°
2026-05-07 08:08 31.32867 121.05428 14704 ft 382 kts 134°
2026-05-07 08:09 31.31237 121.07668 14698 ft 382 kts 134°
2026-05-07 08:09 31.29504 121.10035 14694 ft 383 kts 134°
2026-05-07 08:09 31.27777 121.12408 14689 ft 383 kts 134°
2026-05-07 08:09 31.26070 121.14792 14687 ft 382 kts 133°
2026-05-07 08:10 31.24361 121.17184 14613 ft 384 kts 134°
2026-05-07 08:10 31.22654 121.19581 14236 ft 380 kts 134°
2026-05-07 08:10 31.21006 121.21907 13865 ft 369 kts 133°
2026-05-07 08:10 31.19417 121.24161 13479 ft 363 kts 133°
2026-05-07 08:11 31.17819 121.26416 13048 ft 357 kts 133°
2026-05-07 08:11 31.16251 121.28596 12795 ft 353 kts 133°
2026-05-07 08:11 31.14667 121.30784 12713 ft 352 kts 133°
2026-05-07 08:11 31.13140 121.33037 12398 ft 357 kts 124°
2026-05-07 08:12 31.12095 121.35588 12010 ft 356 kts 112°
2026-05-07 08:12 31.11285 121.38314 11614 ft 353 kts 109°
2026-05-07 08:12 31.10600 121.41036 11192 ft 346 kts 106°
2026-05-07 08:12 31.09989 121.43720 10776 ft 339 kts 105°
2026-05-07 08:13 31.09444 121.46214 10377 ft 308 kts 104°
2026-05-07 08:13 31.08944 121.48583 9957 ft 298 kts 104°
2026-05-07 08:13 31.08433 121.50909 9522 ft 295 kts 104°
2026-05-07 08:13 31.07922 121.53219 9073 ft 293 kts 104°
2026-05-07 08:14 31.07412 121.55516 8633 ft 290 kts 104°
2026-05-07 08:14 31.06912 121.57769 8212 ft 287 kts 104°
2026-05-07 08:14 31.06416 121.60004 7798 ft 291 kts 104°
2026-05-07 08:14 31.05905 121.62276 7392 ft 293 kts 105°
2026-05-07 08:15 31.05374 121.64556 7083 ft 289 kts 105°
2026-05-07 08:15 31.04848 121.66830 6620 ft 292 kts 105°
2026-05-07 08:15 31.04325 121.69097 6190 ft 285 kts 108°
2026-05-07 08:15 31.03312 121.71018 5742 ft 278 kts 140°
2026-05-07 08:16 31.01730 121.72033 5338 ft 268 kts 162°
2026-05-07 08:16 30.99960 121.72711 4896 ft 268 kts 164°
2026-05-07 08:16 30.98179 121.73347 4453 ft 267 kts 165°
2026-05-07 08:16 30.96399 121.73944 4008 ft 265 kts 165°
2026-05-07 08:17 30.94628 121.74523 3573 ft 263 kts 166°
2026-05-07 08:17 30.92875 121.75103 3154 ft 260 kts 165°
2026-05-07 08:17 30.91229 121.75685 2960 ft 236 kts 163°
2026-05-07 08:17 30.89659 121.76254 2891 ft 236 kts 163°
2026-05-07 08:18 30.88091 121.76833 2883 ft 236 kts 163°
2026-05-07 08:18 30.86533 121.77414 2868 ft 234 kts 163°
2026-05-07 08:18 30.85018 121.78105 2881 ft 232 kts 146°
2026-05-07 08:18 30.84087 121.79489 2920 ft 214 kts 105°
2026-05-07 08:19 30.84125 121.81078 2971 ft 190 kts 69°
2026-05-07 08:19 30.84585 121.82521 2971 ft 191 kts 67°
2026-05-07 08:19 30.85083 121.83953 2930 ft 190 kts 65°
2026-05-07 08:19 30.85618 121.85357 2922 ft 190 kts 56°
2026-05-07 08:20 30.86635 121.86231 2939 ft 184 kts 11°
2026-05-07 08:20 30.87899 121.86478 2935 ft 185 kts
2026-05-07 08:20 30.89174 121.86684 2928 ft 185 kts
2026-05-07 08:20 30.90451 121.86861 2918 ft 185 kts
2026-05-07 08:21 30.91718 121.86887 2944 ft 184 kts 349°
2026-05-07 08:21 30.92974 121.86607 2932 ft 183 kts 347°
2026-05-07 08:21 30.94217 121.86276 2915 ft 184 kts 345°
2026-05-07 08:21 30.95455 121.85875 2918 ft 185 kts 343°
2026-05-07 08:22 30.96682 121.85436 2913 ft 185 kts 342°
2026-05-07 08:22 30.97904 121.84988 2884 ft 182 kts 342°
2026-05-07 08:22 30.99122 121.84524 2689 ft 188 kts 341°
2026-05-07 08:22 31.00361 121.84047 2415 ft 186 kts 341°
2026-05-07 08:23 31.01587 121.83583 2205 ft 186 kts 342°
2026-05-07 08:23 31.02814 121.83118 1944 ft 181 kts 342°
2026-05-07 08:23 31.03979 121.82679 1730 ft 169 kts 342°
2026-05-07 08:23 31.05065 121.82270 1506 ft 157 kts 343°
2026-05-07 08:24 31.06039 121.81900 1319 ft 140 kts 343°
2026-05-07 08:24 31.06956 121.81551 1123 ft 139 kts 343°
2026-05-07 08:24 31.07885 121.81203 956 ft 143 kts 343°
2026-05-07 08:24 31.08839 121.80847 784 ft 144 kts 344°
2026-05-07 08:25 31.09788 121.80488 612 ft 143 kts 343°
2026-05-07 08:25 31.10726 121.80136 428 ft 141 kts 343°
2026-05-07 08:25 31.11651 121.79779 259 ft 139 kts 342°
2026-05-07 08:25 31.12549 121.79430 89 ft 131 kts 344°
2026-05-07 08:26 31.14028 121.78884 20 ft 84 kts 342°
2026-05-07 08:26 31.14460 121.78739 23 ft 48 kts 358°
2026-05-07 08:26 31.14663 121.78769 23 ft 13 kts 10°
2026-05-07 08:27 31.14718 121.78792 23 ft 7 kts 50°
2026-05-07 08:27 31.14735 121.78838 24 ft 5 kts 73°
2026-05-07 08:27 31.14746 121.78880 25 ft 6 kts 72°
2026-05-07 08:27 31.14760 121.78928 26 ft 7 kts 72°
2026-05-07 08:28 31.14775 121.78981 26 ft 7 kts 72°
2026-05-07 08:28 31.14790 121.79036 27 ft 8 kts 72°
2026-05-07 08:28 31.14809 121.79103 26 ft 11 kts 72°
2026-05-07 08:28 31.14836 121.79203 26 ft 10 kts 72°
2026-05-07 08:29 31.14851 121.79254 25 ft 7 kts 72°
2026-05-07 08:29 31.14856 121.79273 23 ft 0 kts 72°
2026-05-07 08:29 31.14860 121.79287 23 ft 4 kts 72°
2026-05-07 08:30 31.14874 121.79338 23 ft 9 kts 72°
2026-05-07 08:30 31.14898 121.79423 23 ft 13 kts 72°
2026-05-07 08:30 31.14930 121.79537 23 ft 17 kts 72°
2026-05-07 08:30 31.14877 121.79625 23 ft 16 kts 161°
2026-05-07 08:31 31.14768 121.79667 22 ft 17 kts 162°
2026-05-07 08:31 31.14654 121.79710 22 ft 17 kts 162°
2026-05-07 08:31 31.14536 121.79755 22 ft 20 kts 161°
2026-05-07 08:31 31.14386 121.79811 24 ft 24 kts 162°
2026-05-07 08:32 31.14217 121.79875 23 ft 27 kts 162°
2026-05-07 08:32 31.14056 121.79937 23 ft 23 kts 156°
2026-05-07 08:32 31.14059 121.80087 24 ft 21 kts 73°
2026-05-07 08:32 31.14101 121.80247 23 ft 20 kts 73°
2026-05-07 08:33 31.14128 121.80391 22 ft 16 kts 114°
2026-05-07 08:33 31.14036 121.80437 22 ft 14 kts 176°
2026-05-07 08:33 31.13986 121.80355 22 ft 13 kts 252°
2026-05-07 08:33 31.13967 121.80285 22 ft 1 kts 252°